Caribou, ME

12:39 PM EST on January 24, 2017 (GMT -0500)
Caribou Municipal

Weather History for KCAR - November, 2013

Change the Weather History Date:

Monday, November 4, 2013

  Actual Average Record
Temperature  
Mean Temperature 30 °F 36 °F  
Max Temperature 38 °F 44 °F 66 °F (1982)
Min Temperature 21 °F 29 °F 9 °F (2002)
Degree Days  
Heating Degree Days 35 29  
Month to date heating degree days 103 113  
Since 1 July heating degree days 1059 1253  
Cooling Degree Days 0 0  
Month to date cooling degree days 0 0  
Year to date cooling degree days 192 180  
Moisture  
Dew Point 17 °F    
Average Humidity 61    
Maximum Humidity 81    
Minimum Humidity 40    
Precipitation  
Precipitation 0.00 in 0.12 in 0.93 in (1949)
Month to date precipitation 0.64 0.50  
Year to date precipitation 43.21 32.09  
Snow  
Snow 0.00 in 0.20 in 4.70 in (1949)
Month to date snowfall 0.0 0.7  
Since 1 July snowfall 1.0 2.4  
Since 1 September snowfall 1.0 2.4  
Snow Depth 0.00 in    
Sea Level Pressure  
Sea Level Pressure 30.60 in    
Wind  
Wind Speed 7 mph (NNW)    
Max Wind Speed 17 mph    
Max Gust Speed 22 mph    
Visibility 10 miles    
Events      
T = Trace of Precipitation, MM = Missing Value Source: NWS Daily Summary

Daily Weather History Graph

Daily Weather History Graph

Search for Another Location

Airport or City:

Trip Planner

Search our weather history database for the weather conditions in past years. The results will help you decide how hot, cold, wet, or windy it might be!

Date:

Astronomy

Nov. 04, 2013 Rise Set
Actual Time 6:19 AM EST 4:11 PM EST
Civil Twilight 5:47 AM EST 4:43 PM EST
Nautical Twilight 5:11 AM EST 5:19 PM EST
Astronomical Twilight 4:35 AM EST 5:54 PM EST
Moon 7:29 AM EST (11/4) 5:08 PM EST (11/4)
Length of Visible Light 10h 56m
Length of Day
9h 52m
New Moon, 2% of the Moon is Illuminated
Nov 4
New Moon
Nov 10
First Quarter
Nov 17
Full
Nov 25
Last Quarter
Dec 2
New

Hourly Weather History & Observations

Time (EST) Temp. Windchill Dew Point Humidity Pressure Visibility Wind Dir Wind Speed Gust Speed Precip Events Conditions
12:54 AM 25.0 °F 17.1 °F 14.0 °F 63% 30.40 in 10.0 mi NW 6.9 mph - N/A   Clear
1:54 AM 25.0 °F 18.1 °F 14.0 °F 63% 30.43 in 10.0 mi NW 5.8 mph - N/A   Clear
2:54 AM 25.0 °F 17.1 °F 14.0 °F 63% 30.45 in 10.0 mi NW 6.9 mph - N/A   Clear
3:54 AM 25.0 °F 17.1 °F 14.0 °F 63% 30.48 in 10.0 mi NW 6.9 mph - N/A   Clear
4:54 AM 25.0 °F 17.1 °F 15.1 °F 66% 30.50 in 10.0 mi WNW 6.9 mph - N/A   Scattered Clouds
5:54 AM 24.1 °F 15.2 °F 15.1 °F 69% 30.54 in 10.0 mi NW 8.1 mph - N/A   Clear
6:54 AM 25.0 °F 16.3 °F 16.0 °F 69% 30.57 in 10.0 mi NNW 8.1 mph - N/A   Clear
7:54 AM 28.0 °F 17.0 °F 17.1 °F 63% 30.59 in 10.0 mi North 13.8 mph - N/A   Clear
8:54 AM 30.9 °F 20.2 °F 18.0 °F 59% 30.61 in 10.0 mi North 15.0 mph 21.9 mph N/A   Clear
9:54 AM 33.1 °F 23.9 °F 18.0 °F 54% 30.61 in 10.0 mi North 12.7 mph - N/A   Clear
10:54 AM 34.0 °F 27.2 °F 18.0 °F 52% 30.61 in 10.0 mi NNW 8.1 mph 18.4 mph N/A   Clear
11:54 AM 35.1 °F 29.3 °F 17.1 °F 48% 30.61 in 10.0 mi NNW 6.9 mph - N/A   Clear
12:54 PM 37.0 °F 31.0 °F 17.1 °F 44% 30.61 in 10.0 mi NW 8.1 mph - N/A   Clear
1:54 PM 37.0 °F 29.3 °F 17.1 °F 44% 30.62 in 10.0 mi NNW 11.5 mph - N/A   Clear
2:54 PM 37.0 °F 31.6 °F 16.0 °F 42% 30.64 in 10.0 mi North 6.9 mph - N/A   Clear
3:54 PM 34.0 °F 28.0 °F 18.0 °F 52% 30.65 in 10.0 mi NNW 6.9 mph - N/A   Clear
4:54 PM 32.0 °F 26.4 °F 19.0 °F 59% 30.66 in 10.0 mi NW 5.8 mph - N/A   Clear
5:54 PM 30.0 °F 25.2 °F 18.0 °F 61% 30.68 in 10.0 mi NW 4.6 mph - N/A   Clear
6:54 PM 28.9 °F 23.9 °F 18.0 °F 64% 30.69 in 10.0 mi NNW 4.6 mph - N/A   Clear
7:54 PM 27.0 °F 20.5 °F 17.1 °F 66% 30.68 in 10.0 mi North 5.8 mph - N/A   Clear
8:54 PM 27.0 °F 23.0 °F 18.0 °F 69% 30.70 in 10.0 mi NNW 3.5 mph - N/A   Clear
9:54 PM 26.1 °F - 17.1 °F 69% 30.70 in 10.0 mi Calm Calm - N/A   Clear
10:54 PM 23.0 °F - 17.1 °F 78% 30.71 in 10.0 mi Calm Calm - N/A   Clear
11:54 PM 21.9 °F - 18.0 °F 85% 30.71 in 10.0 mi Calm Calm - N/A   Clear